This is the latest recevied weather packets stored in our database for station/object SR8NGO-1. If no packets are shown the sender has not sent any weather packets the latest 1 day(s).
| Time | Temp. | Humidity | Pressure | Rain* | Wind** | Luminosity | Snow |
|---|---|---|---|---|---|---|---|
| 1777987727 | 30° C | 27% | 998.5 hPa | 137.92 mm | 11.18 m/s, 179° | - | - |
| 1777987487 | 31.11° C | 28% | 998.5 hPa | 137.92 mm | 4.92 m/s, 177° | - | - |
| 1777987247 | 30° C | 28% | 998.6 hPa | 137.92 mm | 8.94 m/s, 179° | - | - |
| 1777987007 | 30° C | 29% | 998.6 hPa | 137.92 mm | 9.39 m/s, 172° | - | - |
| 1777986767 | 31.11° C | 29% | 998.6 hPa | 137.92 mm | 3.58 m/s, 138° | - | - |
| 1777986527 | 30° C | 29% | 998.6 hPa | 137.92 mm | 7.15 m/s, 189° | - | - |
| 1777986287 | 28.89° C | 30% | 998.7 hPa | 137.92 mm | 4.47 m/s, 145° | - | - |
| 1777986047 | 30° C | 31% | 998.7 hPa | 137.92 mm | 7.6 m/s, 173° | - | - |
| 1777985807 | 30° C | 32% | 998.7 hPa | 137.92 mm | 5.81 m/s, 200° | - | - |
| 1777985567 | 30° C | 33% | 998.7 hPa | 137.92 mm | 5.81 m/s, 161° | - | - |
| 1777985327 | 31.11° C | 34% | 998.8 hPa | 137.92 mm | 4.02 m/s, 162° | - | - |
| 1777985087 | 31.11° C | 35% | 998.8 hPa | 137.92 mm | 4.02 m/s, 196° | - | - |
| 1777984847 | 31.11° C | 35% | 998.9 hPa | 137.92 mm | 3.13 m/s, 172° | - | - |
| 1777984607 | 30° C | 36% | 998.9 hPa | 137.92 mm | 3.58 m/s, 127° | - | - |
| 1777984367 | 30° C | 37% | 999 hPa | 137.92 mm | 3.13 m/s, 166° | - | - |
| 1777984127 | 30° C | 37% | 999.1 hPa | 137.92 mm | 4.47 m/s, 156° | - | - |
| 1777983887 | 30° C | 38% | 999.1 hPa | 137.92 mm | 4.02 m/s, 139° | - | - |
| 1777983647 | 31.11° C | 38% | 999.2 hPa | 137.92 mm | 3.13 m/s, 151° | - | - |
| 1777983407 | 31.11° C | 38% | 999.2 hPa | 137.92 mm | 6.71 m/s, 179° | - | - |
| 1777983167 | 31.11° C | 38% | 999.2 hPa | 137.92 mm | 2.24 m/s, 172° | - | - |
| 1777982927 | 30° C | 38% | 999.3 hPa | 137.92 mm | 4.47 m/s, 134° | - | - |
| 1777982687 | 32.22° C | 38% | 999.3 hPa | 137.92 mm | 2.24 m/s, 194° | - | - |
| 1777982447 | 28.89° C | 38% | 999.3 hPa | 137.92 mm | 4.92 m/s, 115° | - | - |
| 1777982207 | 30° C | 38% | 999.4 hPa | 137.92 mm | 2.24 m/s, 156° | - | - |
| 1777981967 | 28.89° C | 39% | 999.4 hPa | 137.92 mm | 6.26 m/s, 134° | - | - |
* Rain latest hour (hover to see other rain measurements)
** Current wind speed in m/s (hover to see current wind gust speed)